Weather History for Hinckley, MN

Change the Weather History Date:

Sunday, September 15, 2013

  Actual Average (KJMR) Record (KJMR)
Temperature  
Mean Temperature 50 °F -  
Max Temperature 60 °F 68 °F 92 °F (1939)
Min Temperature 39 °F 43 °F 21 °F (1984)
Degree Days  
Heating Degree Days 16    
Moisture  
Dew Point 50 °F    
Average Humidity 89    
Maximum Humidity 100    
Minimum Humidity 59    
Precipitation  
Precipitation 0.03 in - - ()
Sea Level Pressure  
Sea Level Pressure 30.13 in    
Wind  
Wind Speed 4 mph (NNE)    
Max Wind Speed 16 mph    
Max Gust Speed 22 mph    
Visibility 9 miles    
Events Rain    
Averages and records for this station are not official NWS values.
T = Trace of Precipitation, MM = Missing Value Source: NWS Daily Summary

Daily Weather History Graph

Daily Weather History Graph

Search for Another Location

Airport:

Trip Planner

Search our weather history database for the weather conditions in past years. The results will help you decide how hot, cold, wet, or windy it might be!

Date:

Astronomy

Sep. 15, 2013 Rise Set
Actual Time 6:50 AM CDT 7:22 PM CDT
Civil Twilight 6:20 AM CDT 7:52 PM CDT
Nautical Twilight 5:44 AM CDT 8:27 PM CDT
Astronomical Twilight 5:07 AM CDT 9:04 PM CDT
Moon 4:59 PM CDT (9/15) 2:17 AM CDT (9/15)
Length of Visible Light 13h 32m
Length of Day
12h 32m
Waxing Gibbous, 82% of the Moon is Illuminated
Sep 15
Waxing Gibbous
Sep 19
Full
Sep 26
Last Quarter
Oct 4
New
Oct 11
First Quarter

Hourly Weather History & Observations

Time (CDT) Temp. Dew Point Humidity Pressure Visibility Wind Dir Wind Speed Gust Speed Precip Events Conditions
12:15 AM 53.6 °F 53.6 °F 100% 29.95 in 10.0 mi East 3.5 mph - 0.01 in Rain Rain
12:35 AM 53.6 °F 53.6 °F 100% 29.95 in 10.0 mi Calm Calm - 0.01 in Rain Light Rain
12:55 AM 53.6 °F 53.6 °F 100% 29.95 in 10.0 mi East 3.5 mph - 0.01 in   Light Drizzle
1:15 AM 53.6 °F 53.6 °F 100% 29.94 in 10.0 mi Calm Calm - N/A Rain Rain
1:35 AM 53.6 °F 53.6 °F 100% 29.94 in 10.0 mi Calm Calm - 0.01 in   Light Drizzle
1:55 AM 53.6 °F 53.6 °F 100% 29.94 in 10.0 mi Calm Calm - 0.01 in   Light Drizzle
2:15 AM 53.6 °F 53.6 °F 100% 29.94 in 10.0 mi Calm Calm - N/A   Overcast
2:35 AM 53.6 °F 53.6 °F 100% 29.94 in 10.0 mi Calm Calm - N/A   Overcast
2:55 AM 53.6 °F 53.6 °F 100% 29.94 in 10.0 mi NE 3.5 mph - N/A   Overcast
3:15 AM 53.6 °F 53.6 °F 100% 29.95 in 10.0 mi NNE 4.6 mph - N/A   Overcast
3:35 AM 55.4 °F 53.6 °F 94% 29.96 in 10.0 mi North 4.6 mph - N/A   Overcast
3:55 AM 53.6 °F 53.6 °F 100% 29.96 in 4.0 mi North 3.5 mph - N/A Rain Light Rain
4:15 AM 53.6 °F 53.6 °F 100% 29.96 in 3.0 mi NNE 4.6 mph - N/A Rain Light Rain
4:35 AM 53.6 °F 53.6 °F 100% 29.96 in 5.0 mi NNE 4.6 mph - N/A Rain Light Rain
4:55 AM 53.6 °F 53.6 °F 100% 29.96 in 7.0 mi NNE 5.8 mph - 0.01 in   Overcast
5:15 AM 53.6 °F 53.6 °F 100% 29.97 in 10.0 mi NNE 4.6 mph - N/A   Overcast
5:35 AM 53.6 °F 53.6 °F 100% 29.97 in 10.0 mi NNE 4.6 mph - N/A   Overcast
5:55 AM 53.6 °F 53.6 °F 100% 29.99 in 7.0 mi NNE 3.5 mph - N/A   Overcast
6:15 AM 53.6 °F 53.6 °F 100% 29.99 in 10.0 mi North 3.5 mph - N/A   Overcast
6:35 AM 53.6 °F 53.6 °F 100% 29.99 in 10.0 mi NNE 3.5 mph - N/A   Overcast
6:55 AM 53.6 °F 53.6 °F 100% 30.00 in 10.0 mi Calm Calm - N/A   Overcast
7:16 AM 53.6 °F 53.6 °F 100% 30.01 in 10.0 mi North 4.6 mph - N/A   Overcast
7:35 AM 55.4 °F 53.6 °F 94% 30.02 in 10.0 mi NNE 3.5 mph - N/A   Overcast
7:55 AM 55.4 °F 53.6 °F 94% 30.03 in 10.0 mi North 4.6 mph - N/A   Overcast
8:15 AM 55.4 °F 53.6 °F 94% 30.04 in 10.0 mi North 3.5 mph - N/A   Overcast
8:35 AM 55.4 °F 55.4 °F 100% 30.04 in 10.0 mi North 3.5 mph - N/A   Overcast
8:56 AM 55.4 °F 55.4 °F 100% 30.05 in 2.5 mi North 6.9 mph - N/A   Overcast
9:15 AM 55.4 °F 55.4 °F 100% 30.06 in 4.0 mi North 9.2 mph - N/A   Overcast
9:35 AM 55.4 °F 55.4 °F 100% 30.07 in 7.0 mi North 5.8 mph - N/A   Overcast
9:56 AM 55.4 °F 55.4 °F 100% 30.08 in 7.0 mi North 8.1 mph - N/A   Overcast
10:15 AM 55.4 °F 55.4 °F 100% 30.09 in 7.0 mi North 9.2 mph - N/A   Overcast
10:35 AM 57.2 °F 55.4 °F 94% 30.10 in 10.0 mi North 12.7 mph 18.4 mph N/A   Overcast
10:56 AM 55.4 °F 53.6 °F 94% 30.11 in 10.0 mi NNE 11.5 mph 20.7 mph N/A   Overcast
11:15 AM 55.4 °F 53.6 °F 94% 30.12 in 10.0 mi North 11.5 mph 18.4 mph N/A   Overcast
11:35 AM 55.4 °F 53.6 °F 94% 30.13 in 10.0 mi NNE 12.7 mph 18.4 mph N/A   Overcast
11:56 AM 57.2 °F 53.6 °F 88% 30.14 in 10.0 mi NNE 13.8 mph 20.7 mph N/A   Overcast
12:15 PM 59.0 °F 51.8 °F 77% 30.15 in 10.0 mi NE 10.4 mph 20.7 mph N/A   Overcast
12:36 PM 59.0 °F 51.8 °F 77% 30.16 in 10.0 mi NNE 16.1 mph 21.9 mph N/A   Overcast
12:55 PM 60.8 °F 51.8 °F 72% 30.16 in 10.0 mi NNE 12.7 mph 18.4 mph N/A   Mostly Cloudy
1:15 PM 60.8 °F 51.8 °F 72% 30.17 in 10.0 mi NNE 12.7 mph 18.4 mph N/A   Overcast
1:36 PM 60.8 °F 51.8 °F 72% 30.18 in 10.0 mi NNE 9.2 mph 20.7 mph N/A   Overcast
1:55 PM 60.8 °F 51.8 °F 72% 30.18 in 10.0 mi NNE 11.5 mph - N/A   Overcast
2:15 PM 59.0 °F 50.0 °F 72% 30.19 in 10.0 mi NNE 11.5 mph - N/A   Overcast
2:36 PM 59.0 °F 50.0 °F 72% 30.20 in 10.0 mi NNE 10.4 mph - N/A   Overcast
2:55 PM 59.0 °F 50.0 °F 72% 30.20 in 10.0 mi North 10.4 mph 18.4 mph N/A   Overcast
3:16 PM 60.8 °F 50.0 °F 68% 30.21 in 10.0 mi NE 6.9 mph - N/A   Overcast
3:35 PM 60.8 °F 50.0 °F 68% 30.22 in 10.0 mi North 9.2 mph - N/A   Overcast
3:56 PM 60.8 °F 50.0 °F 68% 30.23 in 10.0 mi NNE 8.1 mph - N/A   Overcast
4:15 PM 59.0 °F 50.0 °F 72% 30.23 in 10.0 mi NNE 11.5 mph - N/A   Overcast
4:36 PM 59.0 °F 48.2 °F 67% 30.23 in 10.0 mi NNE 9.2 mph - N/A   Mostly Cloudy
4:55 PM 60.8 °F 46.4 °F 59% 30.23 in 10.0 mi NNE 8.1 mph - N/A   Scattered Clouds
5:15 PM 59.0 °F 46.4 °F 63% 30.25 in 10.0 mi NNE 9.2 mph - N/A   Mostly Cloudy
5:36 PM 59.0 °F 46.4 °F 63% 30.25 in 10.0 mi NNE 8.1 mph - N/A   Mostly Cloudy
5:55 PM 59.0 °F 46.4 °F 63% 30.25 in 10.0 mi North 9.2 mph - N/A   Scattered Clouds
6:15 PM 59.0 °F 46.4 °F 63% 30.26 in 10.0 mi NE 6.9 mph - N/A   Scattered Clouds
6:36 PM 57.2 °F 46.4 °F 67% 30.27 in 10.0 mi NNE 4.6 mph - N/A   Clear
6:55 PM 55.4 °F 46.4 °F 72% 30.27 in 10.0 mi NNE 4.6 mph - N/A   Clear
7:16 PM 53.6 °F 46.4 °F 77% 30.27 in 10.0 mi NE 3.5 mph - N/A   Clear
7:36 PM 51.8 °F 46.4 °F 82% 30.27 in 10.0 mi Calm Calm - N/A   Clear
7:55 PM 50.0 °F 46.4 °F 87% 30.28 in 10.0 mi Calm Calm - N/A   Clear
8:16 PM 50.0 °F 46.4 °F 87% 30.28 in 10.0 mi Calm Calm - N/A   Clear
8:36 PM 50.0 °F 46.4 °F 87% 30.29 in 10.0 mi Calm Calm - N/A   Clear
8:55 PM 46.4 °F 44.6 °F 93% 30.30 in 10.0 mi Calm Calm - N/A   Clear
9:16 PM 48.2 °F 46.4 °F 93% 30.31 in 10.0 mi Calm Calm - N/A   Clear
9:36 PM 46.4 °F 44.6 °F 93% 30.31 in 10.0 mi Calm Calm - N/A   Clear
9:55 PM 44.6 °F 44.6 °F 100% 30.31 in 10.0 mi Calm Calm - N/A   Clear
10:16 PM 42.8 °F 41.0 °F 93% 30.31 in 10.0 mi Calm Calm - N/A   Clear
10:36 PM 42.8 °F 41.0 °F 93% 30.31 in 10.0 mi Calm Calm - N/A   Clear
10:55 PM 41.0 °F 41.0 °F 100% 30.32 in 10.0 mi Calm Calm - N/A   Clear
11:16 PM 39.2 °F 39.2 °F 100% 30.33 in 10.0 mi Calm Calm - N/A   Clear
11:36 PM 39.2 °F 39.2 °F 100% 30.33 in 10.0 mi Calm Calm - N/A   Clear
11:55 PM 39.2 °F 39.2 °F 100% 30.34 in 10.0 mi Calm Calm - N/A   Clear